Regional Weather Roundup
Issued by NWS

Home | Current Version | Previous Version | Text Only | Print | Product List | Glossary On
Versions: 1 2 3 4 5 6 7 8 9 10 11 12 13 14 15 16 17 18 19 20 21 22 23 24 25 26 27 28 29 30 31 32 33 34 35 36 37 38 39 40 41 42 43 44 45 46 47 48 49 50
000
ASUS43 KDTX 062010
RWRMI
MICHIGAN HOURLY REGIONAL WEATHER ROUNDUP
NATIONAL WEATHER SERVICE DETROIT/PONTIAC MI
300 PM EST FRI MAR 06 2015

NOTE: "FAIR" INDICATES FEW OR NO CLOUDS BELOW 12,000 FEET WITH NO
SIGNIFICANT WEATHER AND/OR OBSTRUCTION TO VISIBILITY.

MIZ047>049-052>055-059>063-066>070-074>076-081>083-062100-
SOUTHEAST LOWER MICHIGAN

CITY           SKY/WX    TMP DP  RH WIND       PRES   REMARKS
ADRIAN         SUNNY     19   7  59 SW16G22   30.34F WCI   4
ALMA           SUNNY     21   4  48 S14G22    30.23F WCI   8
ANN ARBOR      SUNNY     19   3  49 SW14      30.31F WCI   6
BAD AXE        SUNNY     24   3  40 SW16G23   30.21F WCI  10
CARO           SUNNY     24   2  40 SW18G24   30.23F WCI   9
DETROIT CITY   SUNNY     23   3  42 SW16      30.33F WCI  10
DETROIT        PTSUNNY   22   6  50 S21       30.34F WCI   6
FLINT          SUNNY     25   0  33 SW18G25   30.26F WCI  11
GROSSE ILE     SUNNY     23   5  46 SW14      30.34F WCI  11
HILLSDALE      SUNNY     21   3  46 SW13      30.29F WCI   8
HOWELL         SUNNY     23   0  36 S10G17    30.25F WCI  13

CITY           SKY/WX    TMP DP  RH WIND       PRES   REMARKS
JACKSON        SUNNY     21   2  43 SW17      30.28F WCI   7
LAMBERTVILLE   SUNNY     25   9  50 S13G21    30.35F WCI  13
LANSING        SUNNY     21   2  43 SW17      30.26F WCI   7
LAPEER         FAIR      24   0  34 SW16      30.24F WCI  11
MASON          SUNNY     23   2  41 S8G17     30.27F WCI  13
MONROE         SUNNY     21   7  53 SW12      30.34F WCI   9
MT. CLEMENS    PTSUNNY   23   3  41 SW16      30.29F WCI  10
PONTIAC        PTSUNNY   21   2  43 SW14G23   30.25F WCI   8
PORT HOPE        N/A     25   0  33 SW12G21   30.19F WCI  14
PORT HURON     MOSUNNY   19  10  68 S17G23    30.30F WCI   4
TRI CITIES     SUNNY     23   4  44 SW17      30.23F WCI   9
TROY           SUNNY     24   1  37 S13G20    30.32F WCI  12
SAGINAW HB     SUNNY     23   7  50 SW18      30.24F WCI   9
$$
MIZ043>046-050>051-056>058-064>065-071>073-077>080-062100-
SOUTHWEST LOWER MICHIGAN

CITY           SKY/WX    TMP DP  RH WIND       PRES   REMARKS
BATTLE CREEK   SUNNY     21   4  47 SW23      30.27F WCI   5
BENTON HARBOR  CLOUDY    21   7  54 S15       30.27F WCI   8
BIG RAPIDS     MOSUNNY   23   9  54 SW14G24   30.16F WCI  11
COLDWATER      SUNNY     21   1  42 SW14      30.30F WCI   8
FREMONT        FAIR      21   9  59 SW17      30.20F WCI   7
HOLLAND        SUNNY     24   5  44 S16       30.25F WCI  11
GRAND RAPIDS   PTSUNNY   22   2  42 SW14G26   30.24F WCI   9
IONIA          FAIR      24   6  46 S18       30.23F WCI   9
KALAMAZOO      SUNNY     21   6  52 S15       30.28F WCI   8
LUDINGTON      CLOUDY    26  16  65 SW20G28   30.14F WCI  12
MARSHALL       SUNNY     20   3  46 S13       30.28F WCI   8
MOUNT PLEASANT CLOUDY    24   6  45 S15       30.20F WCI  11
MUSKEGON       PTSUNNY   20   9  62 S18G30    30.22F WCI   5
SOUTH HAVEN    MOSUNNY   24   3  40 S15G22    30.26F WCI  12
$$
MIZ016>042-062100-
NORTHERN LOWER MICHIGAN

CITY           SKY/WX    TMP DP  RH WIND       PRES   REMARKS
ALPENA         PTSUNNY   29   3  33 SW14G24   30.08F WCI  18
BEAVER ISLAND  MOSUNNY   25  18  76 SW20G33   30.01F WCI  11
BELLAIRE       SUNNY     30   8  40 S13G21    30.07F WCI  20
CADILLAC       MOSUNNY   24  11  58 S14G25    30.07F WCI  11
CHARLEVOIX     SUNNY     27  11  50 S18G29    30.06F WCI  14
FRANKFORT      SUNNY     26  17  70 S17G28    30.09F WCI  13
GAYLORD        SUNNY     25   5  42 SW17G31   30.02F WCI  12
GRAYLING       SUNNY     28   8  43 SW10G21   30.07F WCI  19
HARBOR SPRINGS SUNNY     27  11  50 SW15G25   30.03F WCI  15
HOUGHTON LAKE  CLOUDY    23   7  50 SW14      30.10F WCI  11
MANISTEE       SUNNY     27  12  54 S15G24    30.12F WCI  15
OSCODA         MOSUNNY   23   9  56 S20G25    30.15F WCI   8
PELLSTON       PTSUNNY   27   9  46 SW16G28   30.03F WCI  15
ROGERS CITY    SUNNY     29   8  40 SW14G21   30.06F WCI  18
TRAVERSE CITY  MOSUNNY   30  10  43 SW12G23   30.06F WCI  20
$$
MIZ007>008-015-062100-
EASTERN UPPER MICHIGAN

CITY           SKY/WX    TMP DP  RH WIND       PRES   REMARKS
KINROSS        SUNNY     27  16  63 SW16G26   29.98F WCI  14
MACKINAC ISLAN MOSUNNY   28  11  48 SW13G24   30.01F WCI  18
NEWBERRY       CLOUDY    22  17  81 S22G37    29.94F HAZE    WCI   7
S. S. MARIE    CLOUDY    24  13  62 SW16G26   29.97F WCI  11
MUNISING         N/A     26   7  44 S8G23     29.92F WCI  18
$$
MIZ004>006-011>014-085-062100-
CENTRAL UPPER MICHIGAN

CITY           SKY/WX    TMP DP  RH WIND       PRES   REMARKS
MANISTIQUE     CLOUDY    25  17  71 SW18G26   29.97F WCI  12
ESCANABA       CLOUDY    21  14  73 S17G28    29.98F WCI   7
MENOMINEE      CLOUDY    25   9  50 SW12G24   30.01F WCI  14
SAWYER-GWINN   MOSUNNY   28   9  43 SW14      29.87F WCI  17
$$
MIZ001>003-009>011-084-062100-
WESTERN UPPER MICHIGAN

CITY           SKY/WX    TMP DP  RH WIND       PRES   REMARKS
IRON MOUNTAIN  SUNNY     30   9  41 SW13      29.90F WCI  20
HOUGHTON       SUNNY     24  12  60 W24G32    29.86F WCI   8
COPPER HARBOR    N/A     27  11  51 NW12G18   29.87F WCI  17
IRONWOOD       SUNNY     28  10  47 W16       29.90S WCI  17
$$

ABBREVIATIONS USED IN REMARKS
   TC - TEMPERATURE IN CELSIUS
  WCI - WIND CHILL INDEX
   HX - HEAT INDEX
  VSB - VISIBILITY




USA.gov is the U.S. government's official web portal to all federal, state and local government web resources and services.